Satellite: ISS
Catalog number: 25544
Epoch time:      09344.87415091
Element set:     148
Inclination:      051.6444 deg
RA of node:       118.7669 deg
Eccentricity:    0.0008007
Arg of perigee:   067.1016 deg
Mean anomaly:     071.3090 deg
Mean motion:   15.76439945 rev/day
Decay rate:      9.658e-05 rev/day^2
Epoch rev:           63379
Checksum:              323

Satellite: CO-58
Catalog number: 28895
Epoch time:      09342.23312638
Element set:     460
Inclination:      098.0372 deg
RA of node:       227.7430 deg
Eccentricity:    0.0018247
Arg of perigee:   160.6581 deg
Mean anomaly:     199.5292 deg
Mean motion:   14.59821754 rev/day
Decay rate:       -4.2e-07 rev/day^2
Epoch rev:           21912
Checksum:              320

Satellite: FALCON
Catalog number: 30776
Epoch time:      09344.75982071
Element set:     719
Inclination:      035.4325 deg
RA of node:       108.0132 deg
Eccentricity:    0.0002091
Arg of perigee:   349.0918 deg
Mean anomaly:     010.9752 deg
Mean motion:   15.03389258 rev/day
Decay rate:       3.50e-06 rev/day^2
Epoch rev:           15168
Checksum:              288

Satellite: MAST
Catalog number: 31126
Epoch time:      09344.12618289
Element set:     751
Inclination:      097.9661 deg
RA of node:       030.6500 deg
Eccentricity:    0.0095737
Arg of perigee:   093.4770 deg
Mean anomaly:     267.7397 deg
Mean motion:   14.53537334 rev/day
Decay rate:        6.8e-07 rev/day^2
Epoch rev:           14059
Checksum:              318

Satellite: CAPE1
Catalog number: 31130
Epoch time:      09344.13146678
Element set:     763
Inclination:      097.9679 deg
RA of node:       028.4532 deg
Eccentricity:    0.0103898
Arg of perigee:   100.3387 deg
Mean anomaly:     260.9541 deg
Mean motion:   14.52113203 rev/day
Decay rate:        2.2e-07 rev/day^2
Epoch rev:           14022
Checksum:              275

Satellite: COMPASS
Catalog number: 32787
Epoch time:      09344.22835410
Element set:     539
Inclination:      097.9219 deg
RA of node:       046.3632 deg
Eccentricity:    0.0015771
Arg of perigee:   176.4660 deg
Mean anomaly:     183.6663 deg
Mean motion:   14.81712810 rev/day
Decay rate:       5.62e-06 rev/day^2
Epoch rev:            8751
Checksum:              310

Satellite: AAUSAT2
Catalog number: 32788
Epoch time:      09344.18132879
Element set:     532
Inclination:      097.9218 deg
RA of node:       046.4052 deg
Eccentricity:    0.0015489
Arg of perigee:   178.1106 deg
Mean anomaly:     182.0166 deg
Mean motion:   14.81840681 rev/day
Decay rate:       1.16e-06 rev/day^2
Epoch rev:            8751
Checksum:              310

Satellite: DO-64
Catalog number: 32789
Epoch time:      09344.74181159
Element set:     549
Inclination:      097.9275 deg
RA of node:       047.2490 deg
Eccentricity:    0.0015699
Arg of perigee:   174.4347 deg
Mean anomaly:     185.7043 deg
Mean motion:   14.81882949 rev/day
Decay rate:       4.11e-06 rev/day^2
Epoch rev:            8759
Checksum:              365

Satellite: CO-66
Catalog number: 32791
Epoch time:      09344.22474173
Element set:     529
Inclination:      097.9234 deg
RA of node:       046.3901 deg
Eccentricity:    0.0016040
Arg of perigee:   174.8918 deg
Mean anomaly:     185.2454 deg
Mean motion:   14.81525487 rev/day
Decay rate:       3.92e-06 rev/day^2
Epoch rev:            8747
Checksum:              330

Satellite: RS-30
Catalog number: 32953
Epoch time:      09343.57657706
Element set:    0473
Inclination:      082.4995 deg
RA of node:       147.5765 deg
Eccentricity:    0.0019165
Arg of perigee:   154.6018 deg
Mean anomaly:     205.6009 deg
Mean motion:   12.43003179 rev/day
Decay rate:        1.0e-07 rev/day^2
Epoch rev:           07018
Checksum:              300

Satellite: TACSAT-3
Catalog number: 35001
Epoch time:      09344.23473825
Element set:     164
Inclination:      040.4567 deg
RA of node:       267.3116 deg
Eccentricity:    0.0022732
Arg of perigee:   028.4750 deg
Mean anomaly:     331.7302 deg
Mean motion:   15.39748427 rev/day
Decay rate:      2.929e-05 rev/day^2
Epoch rev:            3148
Checksum:              287

Satellite: PHARMSAT
Catalog number: 35002
Epoch time:      09344.91298205
Element set:     157
Inclination:      040.4685 deg
RA of node:       262.0795 deg
Eccentricity:    0.0025788
Arg of perigee:   038.4193 deg
Mean anomaly:     321.8463 deg
Mean motion:   15.40451420 rev/day
Decay rate:      2.227e-05 rev/day^2
Epoch rev:            3159
Checksum:              287

Satellite: HAWKSAT1
Catalog number: 35003
Epoch time:      09343.91187513
Element set:     163
Inclination:      040.4637 deg
RA of node:       266.6307 deg
Eccentricity:    0.0025432
Arg of perigee:   035.0542 deg
Mean anomaly:     325.1939 deg
Mean motion:   15.41650077 rev/day
Decay rate:      4.957e-05 rev/day^2
Epoch rev:            3146
Checksum:              280

Satellite: CP6
Catalog number: 35004
Epoch time:      09343.90393848
Element set:     157
Inclination:      040.4649 deg
RA of node:       266.5770 deg
Eccentricity:    0.0024814
Arg of perigee:   035.6723 deg
Mean anomaly:     324.5746 deg
Mean motion:   15.41851812 rev/day
Decay rate:      5.535e-05 rev/day^2
Epoch rev:            3145
Checksum:              305

